Powrót do katalogu

DELTA 1 DEB

AktywnySSO
NORAD 42080·DEBRIS·🇺🇸 United States

Wystrzelony Dec 15, 1968 z Vandenberg Space Force Base

Loading…

Następne Przeloty (najbliższe 24 godziny)

TLE

Starzejące sięSource: Space-Track

Epoka: Sep 10, 2026, 00:45 UTC

1 42080U 68114G   26253.03168122 -.00000044  00000-0 -48222-5 0  9998
2 42080 101.8267 182.8363 0067952  53.3808  10.0192 12.39299804579122

Śledź DELTA 1 DEB w czasie rzeczywistym z AllMySat

Download on the App Store